When you browse on this site, cookies collect data to enhance your experience and personalize the content and advertising you see.
Visit our Privacy Policy to learn more. By continuing to use the site, you agree to this use of cookies and data.
  • en France
  • Liste des pays
  • À 7 jours
  • Température de l'eau
  • Carte satellitaire
  • Carte météo
  • Widgets météo
  • user-avatar
    Se connecter

    Météo par heure à Maksimovka

    Ce jour, 24 Février, Dimanche

    Heure Température Précipitation Vent Pression Humidité
    00:00 -16°C° 0 mm 2 m/s 755 mmHg 91%
    01:00 -17°C° 0 mm 3 m/s 755 mmHg 91%
    02:00 -17°C° 0 mm 3 m/s 754 mmHg 90%
    03:00 -17°C° 0 mm 3 m/s 754 mmHg 90%
    04:00 -17°C° 0 mm 3 m/s 754 mmHg 90%
    05:00 -17°C° 0 mm 3 m/s 754 mmHg 91%
    06:00 -16°C° 0 mm 3 m/s 754 mmHg 91%
    07:00 -16°C° 0 mm 3 m/s 753 mmHg 92%
    08:00 -15°C° 0 mm 3 m/s 753 mmHg 93%
    09:00 -14°C° 0 mm 3 m/s 753 mmHg 94%
    10:00 -12°C° 0 mm 3 m/s 753 mmHg 94%
    11:00 -10°C° 0 mm 3 m/s 753 mmHg 94%
    12:00 -9°C° 0 mm 3 m/s 752 mmHg 94%
    13:00 -8°C° 0 mm 3 m/s 752 mmHg 93%
    14:00 -7°C° 0 mm 3 m/s 752 mmHg 92%
    15:00 -7°C° 0 mm 3 m/s 752 mmHg 91%
    16:00 -6°C° 0 mm 3 m/s 752 mmHg 92%
    17:00 -6°C° 0 mm 3 m/s 751 mmHg 94%
    18:00 -5°C° 0 mm 2 m/s 751 mmHg 95%
    19:00 -5°C° 0 mm 2 m/s 751 mmHg 95%
    20:00 -5°C° 0 mm 2 m/s 751 mmHg 95%
    21:00 -6°C° 0 mm 3 m/s 750 mmHg 96%
    22:00 -5°C° 0.1 mm 3 m/s 750 mmHg 96%
    23:00 -5°C° 0.1 mm 3 m/s 749 mmHg 96%

    Demain, 25 Février, Lundi

    Heure Température Précipitation Vent Pression Humidité
    00:00 -4°C° 0.1 mm 3 m/s 749 mmHg 97%
    01:00 -4°C° 0.1 mm 3 m/s 748 mmHg 96%
    02:00 -3°C° 0.1 mm 4 m/s 747 mmHg 96%
    03:00 -3°C° 0.1 mm 4 m/s 747 mmHg 96%
    04:00 -2°C° 0.1 mm 4 m/s 746 mmHg 95%
    05:00 -2°C° 0.1 mm 5 m/s 745 mmHg 94%
    06:00 -2°C° 0.1 mm 5 m/s 744 mmHg 93%
    07:00 -2°C° 0.4 mm 5 m/s 744 mmHg 93%
    08:00 -2°C° 0.4 mm 5 m/s 743 mmHg 93%
    09:00 -2°C° 0.4 mm 5 m/s 742 mmHg 93%
    10:00 -2°C° 0.3 mm 5 m/s 742 mmHg 95%
    11:00 -2°C° 0.3 mm 5 m/s 741 mmHg 97%
    12:00 -1°C° 0.3 mm 4 m/s 740 mmHg 99%
    13:00 -1°C° 0.2 mm 4 m/s 740 mmHg 99%
    14:00 -1°C° 0.2 mm 4 m/s 740 mmHg 99%
    15:00 -1°C° 0.2 mm 4 m/s 739 mmHg 99%
    16:00 -2°C° 0 mm 4 m/s 739 mmHg 97%
    17:00 -2°C° 0 mm 4 m/s 739 mmHg 94%
    18:00 -2°C° 0 mm 3 m/s 739 mmHg 91%
    19:00 -2°C° 0.1 mm 3 m/s 739 mmHg 93%
    20:00 -2°C° 0.1 mm 3 m/s 739 mmHg 94%
    21:00 -1°C° 0.1 mm 3 m/s 738 mmHg 95%
    22:00 -1°C° 0.1 mm 3 m/s 738 mmHg 95%
    23:00 -2°C° 0.1 mm 3 m/s 738 mmHg 95%

    Après-demain, 26 Février, Mardi

    Heure Température Précipitation Vent Pression Humidité
    00:00 -2°C° 0.1 mm 3 m/s 738 mmHg 95%
    01:00 -2°C° 0 mm 3 m/s 738 mmHg 96%
    02:00 -2°C° 0 mm 3 m/s 738 mmHg 96%
    03:00 -4°C° 0 mm 3 m/s 737 mmHg 96%
    04:00 -4°C° 0.1 mm 3 m/s 737 mmHg 96%
    05:00 -4°C° 0.1 mm 3 m/s 737 mmHg 96%
    06:00 -4°C° 0.1 mm 3 m/s 737 mmHg 96%
    07:00 -4°C° 0.1 mm 3 m/s 737 mmHg 96%
    08:00 -2°C° 0.1 mm 3 m/s 736 mmHg 96%
    09:00 -2°C° 0.1 mm 3 m/s 736 mmHg 96%
    10:00 -2°C° 0.1 mm 3 m/s 736 mmHg 96%
    11:00 -1°C° 0.1 mm 3 m/s 736 mmHg 97%
    12:00 -1°C° 0.1 mm 3 m/s 736 mmHg 98%
    13:00 -1°C° 0.1 mm 3 m/s 736 mmHg 97%
    14:00 -1°C° 0.1 mm 3 m/s 736 mmHg 97%
    15:00 -1°C° 0.1 mm 3 m/s 736 mmHg 96%
    16:00 -1°C° 0.1 mm 3 m/s 736 mmHg 94%
    17:00 -1°C° 0.1 mm 3 m/s 736 mmHg 92%
    18:00 -2°C° 0.1 mm 3 m/s 737 mmHg 90%
    19:00 -2°C° 0 mm 3 m/s 737 mmHg 91%
    20:00 -4°C° 0 mm 3 m/s 737 mmHg 92%
    21:00 -4°C° 0 mm 3 m/s 737 mmHg 93%
    22:00 -4°C° 0.1 mm 4 m/s 738 mmHg 93%
    23:00 -3°C° 0.1 mm 4 m/s 738 mmHg 93%

    27 Février, Mercredi

    Heure Température Précipitation Vent Pression Humidité
    00:00 -3°C° 0.1 mm 4 m/s 739 mmHg 94%
    01:00 -4°C° 0.1 mm 5 m/s 739 mmHg 93%
    02:00 -4°C° 0.1 mm 6 m/s 739 mmHg 91%
    03:00 -4°C° 0.1 mm 6 m/s 740 mmHg 90%
    04:00 -5°C° 0.1 mm 6 m/s 740 mmHg 90%
    05:00 -6°C° 0.1 mm 6 m/s 741 mmHg 90%
    06:00 -8°C° 0.1 mm 6 m/s 741 mmHg 89%
    07:00 -8°C° 0 mm 6 m/s 742 mmHg 89%
    08:00 -9°C° 0 mm 6 m/s 742 mmHg 89%
    09:00 -10°C° 0 mm 5 m/s 743 mmHg 89%
    10:00 -10°C° 0 mm 5 m/s 743 mmHg 89%
    11:00 -10°C° 0 mm 5 m/s 744 mmHg 89%
    12:00 -10°C° 0 mm 4 m/s 744 mmHg 89%
    13:00 -10°C° 0 mm 4 m/s 744 mmHg 89%
    14:00 -10°C° 0 mm 4 m/s 743 mmHg 88%
    15:00 -10°C° 0 mm 4 m/s 743 mmHg 88%
    16:00 -10°C° 0 mm 3 m/s 743 mmHg 89%
    17:00 -10°C° 0 mm 3 m/s 743 mmHg 90%
    18:00 -10°C° 0 mm 2 m/s 743 mmHg 91%
    19:00 -12°C° 0 mm 2 m/s 743 mmHg 92%
    20:00 -12°C° 0 mm 2 m/s 742 mmHg 93%
    21:00 -13°C° 0 mm 2 m/s 742 mmHg 93%
    22:00 -12°C° 0 mm 2 m/s 741 mmHg 93%
    23:00 -13°C° 0 mm 3 m/s 740 mmHg 93%

    28 Février, Jeudi

    Heure Température Précipitation Vent Pression Humidité
    00:00 -12°C° 0 mm 3 m/s 740 mmHg 93%
    01:00 -12°C° 0 mm 3 m/s 739 mmHg 93%
    02:00 -10°C° 0 mm 3 m/s 739 mmHg 94%
    03:00 -9°C° 0 mm 3 m/s 738 mmHg 94%
    04:00 -9°C° 0.1 mm 3 m/s 737 mmHg 95%
    05:00 -8°C° 0.1 mm 3 m/s 737 mmHg 95%
    06:00 -8°C° 0.1 mm 3 m/s 736 mmHg 95%
    07:00 -7°C° 0 mm 3 m/s 736 mmHg 95%
    08:00 -6°C° 0 mm 3 m/s 736 mmHg 95%
    09:00 -5°C° 0 mm 3 m/s 735 mmHg 95%
    10:00 -4°C° 0 mm 3 m/s 735 mmHg 94%
    11:00 -4°C° 0 mm 3 m/s 734 mmHg 94%
    12:00 -2°C° 0 mm 3 m/s 734 mmHg 93%
    13:00 -2°C° 0 mm 3 m/s 734 mmHg 92%
    14:00 -1°C° 0 mm 3 m/s 733 mmHg 90%
    15:00 -1°C° 0 mm 3 m/s 733 mmHg 89%
    16:00 -2°C° 0 mm 3 m/s 732 mmHg 90%
    17:00 -2°C° 0 mm 3 m/s 732 mmHg 92%
    18:00 -3°C° 0 mm 2 m/s 732 mmHg 93%
    19:00 -3°C° 0 mm 2 m/s 732 mmHg 93%
    20:00 -3°C° 0 mm 2 m/s 731 mmHg 94%
    21:00 -4°C° 0 mm 2 m/s 731 mmHg 94%
    22:00 -4°C° 0 mm 2 m/s 730 mmHg 95%
    23:00 -2°C° 0 mm 1 m/s 730 mmHg 95%

    1 Mars, Vendredi

    Heure Température Précipitation Vent Pression Humidité
    00:00 -2°C° 0 mm 1 m/s 730 mmHg 95%
    01:00 -3°C° 0 mm 1 m/s 729 mmHg 95%
    02:00 -3°C° 0 mm 1 m/s 729 mmHg 96%
    03:00 -5°C° 0 mm 0 m/s 729 mmHg 96%
    04:00 -5°C° 0 mm 0 m/s 729 mmHg 96%
    05:00 -5°C° 0 mm 0 m/s 729 mmHg 96%
    06:00 -5°C° 0 mm 0 m/s 729 mmHg 96%
    07:00 -4°C° 0 mm 1 m/s 729 mmHg 95%
    08:00 -4°C° 0 mm 1 m/s 729 mmHg 95%
    09:00 -3°C° 0 mm 1 m/s 729 mmHg 95%
    10:00 -2°C° 0 mm 1 m/s 730 mmHg 95%
    11:00 -1°C° 0 mm 1 m/s 730 mmHg 94%
    12:00 0°C° 0 mm 1 m/s 730 mmHg 94%
    13:00 -2°C° 0 mm 2 m/s 730 mmHg 94%
    14:00 -2°C° 0 mm 2 m/s 731 mmHg 93%
    15:00 -1°C° 0 mm 3 m/s 731 mmHg 93%
    16:00 -2°C° 0 mm 2 m/s 731 mmHg 93%
    17:00 -2°C° 0 mm 2 m/s 732 mmHg 93%
    18:00 -2°C° 0 mm 2 m/s 732 mmHg 93%
    19:00 -3°C° 0 mm 2 m/s 733 mmHg 93%
    20:00 -4°C° 0 mm 2 m/s 733 mmHg 94%
    21:00 -4°C° 0 mm 2 m/s 733 mmHg 95%
    22:00 -4°C° 0 mm 2 m/s 734 mmHg 95%
    23:00 -4°C° 0 mm 2 m/s 734 mmHg 95%
    Voir plus